User: anonymous   Login
Location: NJAA Observatory
(40.6819°N, 74.8979°W)
Time: 05:51:17
(UTC-04:00)
Language:

Cosmos 220 Rocket - Orbit

View from above orbital plane
View from above orbital plane
View from above satellite
View from above satellite

Ground track
Ground track

The orbit data is extracted from the following two-line orbital elements,

1  3230U 68040B   17295.72430587 +.00000313 +00000-0 +36136-4 0  9996
2  3230 074.0369 347.9381 0031978 266.2898 093.4627 14.90230695633274
Epoch (UTC): 22 October 2017 17:23:00
Eccentricity: 0.0031978
inclination: 74.0369°
perigee height: 575 km
apogee height: 619 km
right ascension of ascending node: 347.9381°
argument of perigee: 266.2898°
revolutions per day: 14.90230695
mean anomaly at epoch: 93.4627°
orbit number at epoch: 63327

The dashed part of the orbit path shows where the satellite is in the earth's shadow,  

DLR